Regional Weather Roundup
Issued by NWS Newport/Morehead, NC

Current Version | Previous Version | Text Only | Print | Product List | Glossary On
Versions: 1 2 3 4 5 6 7 8 9 10 11 12 13 14 15 16 17 18 19 20 21 22 23 24 25 26 27 28 29 30 31 32 33 34 35 36 37 38 39 40 41 42 43 44 45 46 47 48 49 50
000 ASUS42 KMHX 011313 RWRMHX WEATHER ROUNDUP FOR EASTERN NORTH CAROLINA NATIONAL WEATHER SERVICE NEWPORT/MOREHEAD CITY NC 900 AM EDT TUE SEP 01 2015 NOTE: "FAIR" INDICATES FEW OR NO CLOUDS BELOW 12,000 FEET WITH NO SIGNIFICANT WEATHER AND/OR OBSTRUCTIONS TO VISIBILITY NCZ015>017-031-032-045>047-102-103-011400- NORTH COAST CITY SKY/WX TMP DP RH WIND PRES REMARKS EDENTON CLOUDY 73 72 95 NW7 30.07S ELIZABETH CITY CLOUDY 77 73 87 N8 30.07R KITTY HAWK MOSUNNY 78 76 92 N5 30.05R MANTEO CLOUDY 77 74 91 N5 30.06R $$ NCZ045>047-081-094-103-104-011400- CENTRAL COAST CITY SKY/WX TMP DP RH WIND PRES REMARKS FRISCO CLOUDY 79 75 87 VRB3 30.05R SWANQUARTER NOT AVBL $$ NCZ095-097-098-100-101-011400- SOUTHERN COAST CITY SKY/WX TMP DP RH WIND PRES REMARKS BEAUFORT CLOUDY 76 75 97 W7 30.08R CEDAR ISLAND NOT AVBL JACKSONVILLE CLOUDY 76 72 87 W6 30.09R PINEY ISLAND CLOUDY N/A N/A N/A NW9 30.07R FOG WILMINGTON PTSUNNY 75 72 90 NW9 30.10R $$ NCZ011>013-027>030-043-044-078>080-089-090>093-098-011400- COASTAL PLAIN CITY SKY/WX TMP DP RH WIND PRES REMARKS AHOSKIE CLOUDY 71 69 95 CALM 30.09S CLINTON CLOUDY 73 73 99 NW3 30.11S FOG ELIZABETHTOWN CLOUDY 72 72 98 CALM 30.11S GOLDSBORO CLOUDY 75 72 91 NW6 30.09R GREENVILLE CLOUDY 73 72 94 N3 30.11R HAVELOCK PTSUNNY 77 74 90 NW6 30.09R KENANSVILLE N/A 73 71 92 CALM 30.11S KINSTON CLOUDY 73 73 100 CALM 30.10S FOG NEW BERN CLOUDY 76 73 91 NW6 30.09R RICHLANDS CLOUDY 73 68 83 NW3 30.10R ROCKY MOUNT CLOUDY 73 70 90 NW3 30.10S WASHINGTON CLOUDY 73 72 96 N3 30.08S WHITEVILLE CLOUDY 72 71 95 CALM 30.12R $$ AMZ130-135-150-152-154-156-158-170-250-252-270-ANZ085-086-088-633-658-670-011400- MARINE OBSERVATIONS STATION/POSITION TIME TEMP WIND PRES WAVE SWELL AIR SEA DIR/SP/G HT/PER HT/PER (UTC) (F) (DEG/KT/KT) (MB) (FT/S) (FT/S) CHESAPEAKE LIGHT 1300 77 360/ 8/ 9 1018.6 64 E VA BEACH 1250 78 78 50/ 6/ 8 1017.0 2/ 8 2/ 8 DUCK 1200 77 78 50/ 4/ 5 1016.6 2 E DUCK 1211 78 N/A 2/11 OREGON INLET 1200 78 79 350/ 5/ 7 1017.1 13E OREGON INLT 1300 78 N/A 3/ 8 HATTERAS CG 1200 78 79 340/ 8/ 10 1016.9 DIAMOND BUOY 1250 79 84 360/ 12/ 14 1017.1 3/ 6 2/ 6 CAPE LOOKOUT 1300 76 310/ 7/ 8 1018.2 BEAUFORT LAB 1200 76 78 320/ 4/ 8 1017.5 30 SE NEW RVR IN 1208 78 81 310/ 10/ 14 1018.9 30 SE NEW RVR IN 1225 81 N/A 4/ 7 27 SE WRIGHTSVLE 1200 74 81 320/ 6/ 8 N/A 5 SE WRIGHTSVLE 1208 74 81 340/ 10/ 14 1018.9 225 S CAPE HAT 1250 84 84 240/ 10/ 12 1018.7 4/ 7 3/ 7 41 SE CHARLESTON 1250 81 83 360/ 8/ 8 1018.9 3/ 8 3/ 8 $$

USA.gov is the U.S. government's official web portal to all federal, state and local government web resources and services.